Time,TemperatureF,DewpointF,PressureIn,WindDirection,WindDirectionDegrees,WindSpeedMPH,WindSpeedGustMPH,Humidity,HourlyPrecipIn,Conditions,Clouds,dailyrainin,SoftwareType,DateUTC
2013-04-19 00:01:00,65.1,58.4,29.85,NW,324,0.0,0.0,79,0.00,,---,0.00,VWS V14.01,2013-04-19 04:01:00,
2013-04-19 00:06:00,65.0,58.3,29.85,SE,139,1.0,3.0,79,0.00,,---,0.00,VWS V14.01,2013-04-19 04:06:00,
2013-04-19 00:11:00,65.0,58.3,29.85,WNW,290,3.0,7.0,79,0.00,,---,0.00,VWS V14.01,2013-04-19 04:11:00,
2013-04-19 00:16:00,64.9,58.2,29.85,WNW,302,6.0,6.0,79,0.00,,---,0.00,VWS V14.01,2013-04-19 04:16:00,
2013-04-19 00:21:00,64.9,58.2,29.85,WNW,293,7.0,7.0,79,0.00,,---,0.00,VWS V14.01,2013-04-19 04:21:00,
2013-04-19 00:26:00,64.9,58.6,29.84,West,271,3.0,3.0,80,0.00,,---,0.00,VWS V14.01,2013-04-19 04:26:00,
2013-04-19 00:31:00,64.8,58.5,29.84,WNW,284,2.0,2.0,80,0.00,,---,0.00,VWS V14.01,2013-04-19 04:31:00,
2013-04-19 00:36:00,64.7,58.4,29.84,WNW,294,3.0,5.0,80,0.00,,---,0.00,VWS V14.01,2013-04-19 04:36:00,
2013-04-19 00:41:00,64.7,58.4,29.84,WNW,302,3.0,7.0,80,0.00,,---,0.00,VWS V14.01,2013-04-19 04:41:00,
2013-04-19 00:46:00,64.4,58.8,29.84,WNW,288,6.0,6.0,82,0.00,,---,0.00,VWS V14.01,2013-04-19 04:46:00,
2013-04-19 00:51:00,63.8,58.9,29.84,WNW,294,5.0,5.0,84,0.00,,---,0.00,VWS V14.01,2013-04-19 04:51:00,
2013-04-19 00:56:00,63.3,58.7,29.85,NNW,328,4.0,8.0,85,0.00,,---,0.00,VWS V14.01,2013-04-19 04:56:00,
2013-04-19 01:01:00,62.9,58.7,29.84,WNW,297,3.0,3.0,86,0.00,,---,0.00,VWS V14.01,2013-04-19 05:01:00,
2013-04-19 01:06:00,62.5,58.9,29.84,WNW,295,4.0,4.0,88,0.03,,---,0.03,VWS V14.01,2013-04-19 05:06:00,
2013-04-19 01:11:00,62.1,59.1,29.84,NW,315,3.0,4.0,90,0.04,,---,0.04,VWS V14.01,2013-04-19 05:11:00,
2013-04-19 01:16:00,62.0,58.7,29.83,South,186,2.0,2.0,89,0.04,,---,0.04,VWS V14.01,2013-04-19 05:16:00,
2013-04-19 01:21:00,61.8,58.8,29.84,NW,319,4.0,4.0,90,0.04,,---,0.04,VWS V14.01,2013-04-19 05:21:00,
2013-04-19 01:26:00,61.6,58.6,29.84,West,262,3.0,5.0,90,0.04,,---,0.04,VWS V14.01,2013-04-19 05:26:00,
2013-04-19 01:31:00,61.7,58.7,29.83,East,91,0.0,4.0,90,0.04,,---,0.04,VWS V14.01,2013-04-19 05:31:00,
2013-04-19 01:36:00,61.6,59.0,29.83,South,173,1.0,2.0,91,0.04,,---,0.04,VWS V14.01,2013-04-19 05:36:00,
2013-04-19 01:41:00,61.4,58.8,29.83,WNW,302,0.0,2.0,91,0.04,,---,0.04,VWS V14.01,2013-04-19 05:41:00,
2013-04-19 01:46:00,61.4,58.5,29.83,NE,43,4.0,4.0,90,0.04,,---,0.04,VWS V14.01,2013-04-19 05:46:00,
2013-04-19 01:51:00,61.4,58.5,29.83,South,172,2.0,6.0,90,0.04,,---,0.04,VWS V14.01,2013-04-19 05:51:00,
2013-04-19 01:56:00,61.4,58.5,29.82,NW,319,5.0,5.0,90,0.04,,---,0.04,VWS V14.01,2013-04-19 05:56:00,
2013-04-19 02:01:00,61.4,58.1,29.82,NW,323,1.0,4.0,89,0.04,,---,0.04,VWS V14.01,2013-04-19 06:01:00,
2013-04-19 02:06:00,61.5,58.5,29.82,West,280,6.0,9.0,90,0.02,,---,0.04,VWS V14.01,2013-04-19 06:06:00,
2013-04-19 02:11:00,61.5,58.2,29.83,NW,323,4.0,9.0,89,0.00,,---,0.04,VWS V14.01,2013-04-19 06:11:00,
2013-04-19 02:16:00,61.6,58.3,29.83,NW,312,3.0,6.0,89,0.00,,---,0.04,VWS V14.01,2013-04-19 06:16:00,
2013-04-19 02:21:00,61.6,58.3,29.82,ESE,106,2.0,2.0,89,0.00,,---,0.04,VWS V14.01,2013-04-19 06:21:00,
2013-04-19 02:26:00,61.6,58.0,29.81,NW,309,11.0,11.0,88,0.00,,---,0.04,VWS V14.01,2013-04-19 06:26:00,
2013-04-19 02:31:00,61.6,58.0,29.80,WNW,290,4.0,7.0,88,0.00,,---,0.04,VWS V14.01,2013-04-19 06:31:00,
2013-04-19 02:36:00,61.7,58.1,29.80,West,267,1.0,1.0,88,0.00,,---,0.04,VWS V14.01,2013-04-19 06:36:00,
2013-04-19 02:41:00,61.7,57.8,29.79,NW,323,10.0,11.0,87,0.00,,---,0.04,VWS V14.01,2013-04-19 06:41:00,
2013-04-19 02:46:00,61.7,57.8,29.80,WNW,300,2.0,4.0,87,0.00,,---,0.04,VWS V14.01,2013-04-19 06:46:00,
2013-04-19 02:51:00,61.7,58.1,29.80,SW,215,1.0,3.0,88,0.00,,---,0.04,VWS V14.01,2013-04-19 06:51:00,
2013-04-19 02:56:00,61.7,57.8,29.80,WNW,285,4.0,6.0,87,0.00,,---,0.04,VWS V14.01,2013-04-19 06:56:00,
2013-04-19 03:01:00,61.8,57.9,29.80,West,260,6.0,6.0,87,0.00,,---,0.04,VWS V14.01,2013-04-19 07:01:00,
2013-04-19 03:06:00,61.8,57.9,29.79,NW,315,3.0,4.0,87,0.00,,---,0.04,VWS V14.01,2013-04-19 07:06:00,
2013-04-19 03:11:00,61.7,57.8,29.80,ESE,107,6.0,9.0,87,0.00,,---,0.04,VWS V14.01,2013-04-19 07:11:00,
2013-04-19 03:16:00,61.8,57.9,29.79,SSW,210,1.0,3.0,87,0.00,,---,0.04,VWS V14.01,2013-04-19 07:16:00,
2013-04-19 03:21:00,61.8,57.9,29.77,West,275,8.0,11.0,87,0.00,,---,0.04,VWS V14.01,2013-04-19 07:21:00,
2013-04-19 03:26:00,61.8,57.9,29.78,WNW,288,5.0,6.0,87,0.00,,---,0.04,VWS V14.01,2013-04-19 07:26:00,
2013-04-19 03:31:00,61.7,57.8,29.77,West,280,3.0,3.0,87,0.00,,---,0.04,VWS V14.01,2013-04-19 07:31:00,
2013-04-19 03:36:00,61.7,57.8,29.78,NNW,337,3.0,7.0,87,0.00,,---,0.04,VWS V14.01,2013-04-19 07:36:00,
2013-04-19 03:41:00,61.8,57.9,29.78,SSE,152,4.0,5.0,87,0.00,,---,0.04,VWS V14.01,2013-04-19 07:41:00,
2013-04-19 03:46:00,61.8,57.9,29.78,WNW,287,5.0,8.0,87,0.00,,---,0.04,VWS V14.01,2013-04-19 07:46:00,
2013-04-19 03:51:00,61.8,57.9,29.78,NW,314,7.0,11.0,87,0.00,,---,0.04,VWS V14.01,2013-04-19 07:51:00,
2013-04-19 03:56:00,61.9,58.0,29.77,NW,319,4.0,5.0,87,0.00,,---,0.04,VWS V14.01,2013-04-19 07:56:00,
2013-04-19 04:01:00,61.9,58.0,29.77,West,274,2.0,3.0,87,0.00,,---,0.04,VWS V14.01,2013-04-19 08:01:00,
2013-04-19 04:06:00,62.0,57.8,29.78,East,82,3.0,8.0,86,0.00,,---,0.04,VWS V14.01,2013-04-19 08:06:00,
2013-04-19 04:11:00,62.0,57.8,29.77,NW,320,8.0,10.0,86,0.00,,---,0.04,VWS V14.01,2013-04-19 08:11:00,
2013-04-19 04:16:00,62.1,57.9,29.76,ESE,117,1.0,3.0,86,0.00,,---,0.04,VWS V14.01,2013-04-19 08:16:00,
2013-04-19 04:21:00,62.1,57.9,29.76,WNW,295,9.0,10.0,86,0.00,,---,0.04,VWS V14.01,2013-04-19 08:21:00,
2013-04-19 04:26:00,62.2,58.0,29.75,SE,136,3.0,5.0,86,0.00,,---,0.04,VWS V14.01,2013-04-19 08:26:00,
2013-04-19 04:31:00,62.2,58.0,29.75,West,274,3.0,4.0,86,0.00,,---,0.04,VWS V14.01,2013-04-19 08:31:00,
2013-04-19 04:36:00,62.2,57.6,29.76,West,276,16.0,16.0,85,0.00,,---,0.04,VWS V14.01,2013-04-19 08:36:00,
2013-04-19 04:41:00,62.2,57.6,29.75,NW,309,1.0,4.0,85,0.00,,---,0.04,VWS V14.01,2013-04-19 08:41:00,
2013-04-19 04:46:00,62.2,57.6,29.76,WNW,300,7.0,7.0,85,0.00,,---,0.04,VWS V14.01,2013-04-19 08:46:00,
2013-04-19 04:51:00,62.4,57.8,29.77,WNW,291,5.0,5.0,85,0.00,,---,0.04,VWS V14.01,2013-04-19 08:51:00,
2013-04-19 04:56:00,62.4,57.8,29.77,NW,305,4.0,11.0,85,0.00,,---,0.04,VWS V14.01,2013-04-19 08:56:00,
2013-04-19 05:01:00,62.4,57.8,29.76,NW,312,2.0,7.0,85,0.00,,---,0.04,VWS V14.01,2013-04-19 09:01:00,
2013-04-19 05:06:00,62.4,57.8,29.76,WSW,242,2.0,5.0,85,0.00,,---,0.04,VWS V14.01,2013-04-19 09:06:00,
2013-04-19 05:11:00,62.3,57.7,29.76,NNE,15,2.0,2.0,85,0.00,,---,0.04,VWS V14.01,2013-04-19 09:11:00,
2013-04-19 05:16:00,62.3,57.7,29.76,WNW,302,4.0,5.0,85,0.00,,---,0.04,VWS V14.01,2013-04-19 09:16:00,
2013-04-19 05:21:00,62.3,57.7,29.76,WNW,287,9.0,9.0,85,0.00,,---,0.04,VWS V14.01,2013-04-19 09:21:00,
2013-04-19 05:26:00,62.2,58.0,29.76,South,188,2.0,12.0,86,0.00,,---,0.04,VWS V14.01,2013-04-19 09:26:00,
2013-04-19 05:31:00,62.3,58.1,29.76,WNW,285,6.0,6.0,86,0.00,,---,0.04,VWS V14.01,2013-04-19 09:31:00,
2013-04-19 05:36:00,62.4,57.8,29.75,WNW,299,6.0,6.0,85,0.00,,---,0.04,VWS V14.01,2013-04-19 09:36:00,
2013-04-19 05:41:00,62.4,57.8,29.75,WNW,301,7.0,7.0,85,0.00,,---,0.04,VWS V14.01,2013-04-19 09:41:00,
2013-04-19 05:46:00,62.4,58.2,29.75,WNW,288,6.0,7.0,86,0.00,,---,0.04,VWS V14.01,2013-04-19 09:46:00,
2013-04-19 05:51:00,62.3,58.1,29.74,SW,222,1.0,2.0,86,0.00,,---,0.04,VWS V14.01,2013-04-19 09:51:00,
2013-04-19 05:56:00,62.2,58.0,29.73,NW,308,6.0,6.0,86,0.00,,---,0.04,VWS V14.01,2013-04-19 09:56:00,
2013-04-19 06:01:00,62.3,58.1,29.74,NW,315,5.0,8.0,86,0.00,,---,0.04,VWS V14.01,2013-04-19 10:01:00,
2013-04-19 06:06:00,62.3,58.1,29.74,NW,321,2.0,8.0,86,0.00,,---,0.04,VWS V14.01,2013-04-19 10:06:00,
2013-04-19 06:11:00,62.4,58.2,29.74,WNW,285,4.0,5.0,86,0.00,,---,0.04,VWS V14.01,2013-04-19 10:11:00,
2013-04-19 06:16:00,62.5,58.3,29.74,West,266,3.0,4.0,86,0.00,,---,0.04,VWS V14.01,2013-04-19 10:16:00,
2013-04-19 06:21:00,62.6,58.4,29.74,WNW,302,6.0,6.0,86,0.00,,---,0.04,VWS V14.01,2013-04-19 10:21:00,
2013-04-19 06:26:00,62.6,58.4,29.74,West,276,6.0,6.0,86,0.00,,---,0.04,VWS V14.01,2013-04-19 10:26:00,
2013-04-19 06:31:00,62.7,58.5,29.74,WNW,287,4.0,4.0,86,0.00,,---,0.04,VWS V14.01,2013-04-19 10:31:00,
2013-04-19 06:36:00,62.7,58.5,29.74,West,276,6.0,7.0,86,0.00,,---,0.04,VWS V14.01,2013-04-19 10:36:00,
2013-04-19 06:41:00,62.8,58.6,29.75,SE,146,1.0,3.0,86,0.00,,---,0.04,VWS V14.01,2013-04-19 10:41:00,
2013-04-19 06:46:00,62.8,58.6,29.76,SE,138,3.0,4.0,86,0.00,,---,0.04,VWS V14.01,2013-04-19 10:46:00,
2013-04-19 06:51:00,62.9,58.3,29.75,NW,318,3.0,6.0,85,0.00,,---,0.04,VWS V14.01,2013-04-19 10:51:00,
2013-04-19 06:56:00,63.0,58.4,29.77,ENE,75,4.0,5.0,85,0.00,,---,0.04,VWS V14.01,2013-04-19 10:56:00,
2013-04-19 07:01:00,63.0,58.4,29.75,WNW,294,9.0,9.0,85,0.00,,---,0.04,VWS V14.01,2013-04-19 11:01:00,
2013-04-19 07:06:00,63.0,58.4,29.75,SSW,205,2.0,3.0,85,0.00,,---,0.04,VWS V14.01,2013-04-19 11:06:00,
2013-04-19 07:11:00,63.1,58.5,29.75,WNW,295,3.0,5.0,85,0.00,,---,0.04,VWS V14.01,2013-04-19 11:11:00,
2013-04-19 07:16:00,63.1,58.2,29.76,WNW,295,8.0,12.0,84,0.00,,---,0.04,VWS V14.01,2013-04-19 11:16:00,
2013-04-19 07:21:00,63.2,58.3,29.76,WNW,295,1.0,2.0,84,0.00,,---,0.04,VWS V14.01,2013-04-19 11:21:00,
2013-04-19 07:26:00,63.2,58.3,29.76,NW,323,4.0,5.0,84,0.00,,---,0.04,VWS V14.01,2013-04-19 11:26:00,
2013-04-19 07:31:00,63.1,58.2,29.76,NW,314,4.0,6.0,84,0.00,,---,0.04,VWS V14.01,2013-04-19 11:31:00,
2013-04-19 07:36:00,63.2,58.3,29.76,SSW,208,4.0,6.0,84,0.00,,---,0.04,VWS V14.01,2013-04-19 11:36:00,
2013-04-19 07:41:00,63.3,58.1,29.76,NW,305,4.0,4.0,83,0.00,,---,0.04,VWS V14.01,2013-04-19 11:41:00,
2013-04-19 07:46:00,63.4,58.2,29.75,West,264,13.0,13.0,83,0.00,,---,0.04,VWS V14.01,2013-04-19 11:46:00,
2013-04-19 07:51:00,63.4,58.2,29.76,WNW,298,11.0,12.0,83,0.00,,---,0.04,VWS V14.01,2013-04-19 11:51:00,
2013-04-19 07:56:00,63.3,58.4,29.76,NW,325,3.0,6.0,84,0.00,,---,0.04,VWS V14.01,2013-04-19 11:56:00,
2013-04-19 08:01:00,63.2,58.3,29.77,NW,313,5.0,5.0,84,0.00,,---,0.04,VWS V14.01,2013-04-19 12:01:00,
2013-04-19 08:06:00,63.0,58.4,29.76,East,101,4.0,6.0,85,0.00,,---,0.04,VWS V14.01,2013-04-19 12:06:00,
2013-04-19 08:11:00,63.0,58.1,29.76,WNW,284,2.0,3.0,84,0.00,,---,0.04,VWS V14.01,2013-04-19 12:11:00,
2013-04-19 08:16:00,62.9,58.3,29.76,SE,125,1.0,3.0,85,0.00,,---,0.04,VWS V14.01,2013-04-19 12:16:00,
2013-04-19 08:21:00,62.6,58.4,29.76,NE,41,1.0,3.0,86,0.00,,---,0.04,VWS V14.01,2013-04-19 12:21:00,
2013-04-19 08:26:00,62.4,58.5,29.77,West,274,9.0,9.0,87,0.00,,---,0.04,VWS V14.01,2013-04-19 12:26:00,
2013-04-19 08:31:00,62.4,58.5,29.76,East,92,1.0,3.0,87,0.00,,---,0.04,VWS V14.01,2013-04-19 12:31:00,
2013-04-19 08:36:00,62.4,58.2,29.76,West,263,1.0,1.0,86,0.00,,---,0.04,VWS V14.01,2013-04-19 12:36:00,
2013-04-19 08:41:00,62.4,58.2,29.75,WSW,255,1.0,1.0,86,0.00,,---,0.04,VWS V14.01,2013-04-19 12:41:00,
2013-04-19 08:46:00,62.3,58.4,29.75,ESE,113,1.0,1.0,87,0.00,,---,0.04,VWS V14.01,2013-04-19 12:46:00,
2013-04-19 08:51:00,62.3,58.4,29.76,South,184,1.0,2.0,87,0.00,,---,0.04,VWS V14.01,2013-04-19 12:51:00,
2013-04-19 08:56:00,62.2,58.3,29.75,WNW,300,5.0,5.0,87,0.00,,---,0.04,VWS V14.01,2013-04-19 12:56:00,
2013-04-19 09:01:00,62.2,58.3,29.75,NW,317,2.0,6.0,87,0.00,,---,0.04,VWS V14.01,2013-04-19 13:01:00,
2013-04-19 09:06:00,62.0,58.4,29.75,East,79,3.0,4.0,88,0.01,,---,0.05,VWS V14.01,2013-04-19 13:06:00,
2013-04-19 09:11:00,61.8,58.5,29.75,NNW,332,2.0,5.0,89,0.01,,---,0.05,VWS V14.01,2013-04-19 13:11:00,
2013-04-19 09:16:00,61.7,58.4,29.75,NNW,347,4.0,6.0,89,0.01,,---,0.05,VWS V14.01,2013-04-19 13:16:00,
2013-04-19 09:21:00,61.7,58.4,29.75,WSW,238,6.0,8.0,89,0.01,,---,0.05,VWS V14.01,2013-04-19 13:21:00,
2013-04-19 09:26:00,61.8,58.2,29.75,West,259,2.0,2.0,88,0.01,,---,0.05,VWS V14.01,2013-04-19 13:26:00,
2013-04-19 09:31:00,61.8,58.5,29.75,NNW,329,1.0,2.0,89,0.01,,---,0.05,VWS V14.01,2013-04-19 13:31:00,
2013-04-19 09:36:00,61.9,58.0,29.74,NE,39,5.0,5.0,87,0.01,,---,0.05,VWS V14.01,2013-04-19 13:36:00,
2013-04-19 09:41:00,62.2,58.6,29.73,WNW,297,3.0,5.0,88,0.01,,---,0.05,VWS V14.01,2013-04-19 13:41:00,
2013-04-19 09:46:00,62.2,58.3,29.73,NW,323,1.0,2.0,87,0.01,,---,0.05,VWS V14.01,2013-04-19 13:46:00,
2013-04-19 09:51:00,62.2,58.3,29.73,West,278,5.0,11.0,87,0.01,,---,0.05,VWS V14.01,2013-04-19 13:51:00,
2013-04-19 09:56:00,62.3,58.4,29.74,NW,315,2.0,5.0,87,0.01,,---,0.05,VWS V14.01,2013-04-19 13:56:00,
2013-04-19 10:01:00,62.3,58.4,29.74,NW,312,6.0,6.0,87,0.01,,---,0.05,VWS V14.01,2013-04-19 14:01:00,
2013-04-19 10:06:00,62.2,58.6,29.75,South,187,8.0,8.0,88,0.00,,---,0.05,VWS V14.01,2013-04-19 14:06:00,
2013-04-19 10:11:00,62.2,58.9,29.74,NW,322,4.0,6.0,89,0.00,,---,0.05,VWS V14.01,2013-04-19 14:11:00,
2013-04-19 10:16:00,61.8,58.8,29.74,NW,322,3.0,3.0,90,0.01,,---,0.06,VWS V14.01,2013-04-19 14:16:00,
2013-04-19 10:21:00,61.6,59.0,29.74,WNW,295,2.0,2.0,91,0.01,,---,0.06,VWS V14.01,2013-04-19 14:21:00,
2013-04-19 10:26:00,61.6,59.0,29.73,SE,146,1.0,1.0,91,0.01,,---,0.06,VWS V14.01,2013-04-19 14:26:00,
2013-04-19 10:31:00,61.6,59.0,29.71,WNW,294,4.0,4.0,91,0.01,,---,0.06,VWS V14.01,2013-04-19 14:31:00,
2013-04-19 10:36:00,61.7,59.0,29.71,West,264,2.0,6.0,91,0.01,,---,0.06,VWS V14.01,2013-04-19 14:36:00,
2013-04-19 10:41:00,62.0,59.3,29.71,WNW,290,4.0,4.0,91,0.01,,---,0.06,VWS V14.01,2013-04-19 14:41:00,
2013-04-19 10:46:00,62.1,59.5,29.70,WNW,302,3.0,7.0,91,0.01,,---,0.06,VWS V14.01,2013-04-19 14:46:00,
2013-04-19 10:51:00,62.2,59.2,29.70,West,270,3.0,3.0,90,0.01,,---,0.06,VWS V14.01,2013-04-19 14:51:00,
2013-04-19 10:56:00,62.5,59.5,29.71,East,99,3.0,6.0,90,0.01,,---,0.06,VWS V14.01,2013-04-19 14:56:00,
2013-04-19 11:01:00,62.7,59.4,29.71,North,9,5.0,6.0,89,0.01,,---,0.06,VWS V14.01,2013-04-19 15:01:00,
2013-04-19 11:06:00,63.0,59.4,29.71,North,358,1.0,3.0,88,0.01,,---,0.06,VWS V14.01,2013-04-19 15:06:00,
2013-04-19 11:11:00,63.1,59.5,29.71,West,266,16.0,16.0,88,0.01,,---,0.06,VWS V14.01,2013-04-19 15:11:00,
2013-04-19 11:16:00,63.2,59.3,29.71,NW,307,6.0,7.0,87,0.00,,---,0.06,VWS V14.01,2013-04-19 15:16:00,
2013-04-19 11:21:00,63.3,59.4,29.69,NNW,343,6.0,8.0,87,0.00,,---,0.06,VWS V14.01,2013-04-19 15:21:00,
2013-04-19 11:26:00,63.4,59.5,29.70,WNW,293,7.0,11.0,87,0.00,,---,0.06,VWS V14.01,2013-04-19 15:26:00,
2013-04-19 11:31:00,63.5,59.6,29.70,West,266,2.0,6.0,87,0.00,,---,0.06,VWS V14.01,2013-04-19 15:31:00,
2013-04-19 11:36:00,63.5,59.2,29.70,NW,305,4.0,15.0,86,0.00,,---,0.06,VWS V14.01,2013-04-19 15:36:00,
2013-04-19 11:41:00,63.7,59.4,29.70,SW,231,3.0,9.0,86,0.00,,---,0.06,VWS V14.01,2013-04-19 15:41:00,
2013-04-19 11:46:00,63.8,59.5,29.69,West,264,1.0,3.0,86,0.00,,---,0.06,VWS V14.01,2013-04-19 15:46:00,
2013-04-19 11:51:00,63.8,59.5,29.69,WNW,293,7.0,8.0,86,0.00,,---,0.06,VWS V14.01,2013-04-19 15:51:00,
2013-04-19 11:56:00,64.1,59.8,29.70,North,350,5.0,6.0,86,0.00,,---,0.06,VWS V14.01,2013-04-19 15:56:00,
2013-04-19 12:01:00,64.3,60.0,29.69,NW,319,3.0,7.0,86,0.00,,---,0.06,VWS V14.01,2013-04-19 16:01:00,
2013-04-19 12:06:00,64.3,60.0,29.69,ESE,114,4.0,8.0,86,0.00,,---,0.06,VWS V14.01,2013-04-19 16:06:00,
2013-04-19 12:11:00,64.3,59.7,29.69,West,267,5.0,5.0,85,0.00,,---,0.06,VWS V14.01,2013-04-19 16:11:00,
2013-04-19 12:16:00,64.1,59.5,29.69,NW,308,6.0,13.0,85,0.00,,---,0.06,VWS V14.01,2013-04-19 16:16:00,
2013-04-19 12:21:00,64.1,59.8,29.69,West,271,4.0,8.0,86,0.00,,---,0.06,VWS V14.01,2013-04-19 16:21:00,
2013-04-19 12:26:00,64.0,59.7,29.68,North,356,4.0,5.0,86,0.00,,---,0.06,VWS V14.01,2013-04-19 16:26:00,
2013-04-19 12:31:00,63.8,59.5,29.68,South,173,3.0,5.0,86,0.00,,---,0.06,VWS V14.01,2013-04-19 16:31:00,
2013-04-19 12:36:00,63.8,59.9,29.68,SSE,166,2.0,6.0,87,0.00,,---,0.06,VWS V14.01,2013-04-19 16:36:00,
2013-04-19 12:41:00,63.7,59.8,29.67,East,81,3.0,5.0,87,0.01,,---,0.07,VWS V14.01,2013-04-19 16:41:00,
2013-04-19 12:46:00,63.5,59.6,29.68,WSW,239,2.0,4.0,87,0.01,,---,0.07,VWS V14.01,2013-04-19 16:46:00,
2013-04-19 12:51:00,63.2,59.9,29.68,WNW,287,2.0,4.0,89,0.03,,---,0.09,VWS V14.01,2013-04-19 16:51:00,
2013-04-19 12:56:00,62.8,59.8,29.67,NW,323,0.0,3.0,90,0.06,,---,0.12,VWS V14.01,2013-04-19 16:56:00,
2013-04-19 13:01:00,62.4,59.7,29.67,NE,47,2.0,3.0,91,0.10,,---,0.16,VWS V14.01,2013-04-19 17:01:00,
2013-04-19 13:06:00,62.2,59.8,29.66,East,89,2.0,6.0,92,0.14,,---,0.20,VWS V14.01,2013-04-19 17:06:00,
2013-04-19 13:11:00,62.1,59.8,29.66,NNW,339,0.0,1.0,92,0.17,,---,0.23,VWS V14.01,2013-04-19 17:11:00,
2013-04-19 13:16:00,61.9,59.9,29.67,ESE,103,3.0,8.0,93,0.20,,---,0.26,VWS V14.01,2013-04-19 17:16:00,
2013-04-19 13:21:00,62.0,60.0,29.67,West,271,5.0,7.0,93,0.22,,---,0.28,VWS V14.01,2013-04-19 17:21:00,
2013-04-19 13:26:00,62.2,60.2,29.69,West,262,2.0,4.0,93,0.25,,---,0.31,VWS V14.01,2013-04-19 17:26:00,
2013-04-19 13:31:00,62.3,60.2,29.69,East,99,4.0,5.0,93,0.28,,---,0.34,VWS V14.01,2013-04-19 17:31:00,
2013-04-19 13:36:00,62.2,60.2,29.69,SSE,167,2.0,5.0,93,0.31,,---,0.37,VWS V14.01,2013-04-19 17:36:00,
2013-04-19 13:41:00,62.1,60.4,29.69,South,172,1.0,4.0,94,0.32,,---,0.39,VWS V14.01,2013-04-19 17:41:00,
2013-04-19 13:46:00,62.1,60.4,29.69,SSE,149,0.0,4.0,94,0.34,,---,0.41,VWS V14.01,2013-04-19 17:46:00,
2013-04-19 13:51:00,62.0,60.3,29.69,NW,305,3.0,3.0,94,0.34,,---,0.43,VWS V14.01,2013-04-19 17:51:00,
2013-04-19 13:56:00,62.0,60.3,29.68,NE,46,1.0,2.0,94,0.34,,---,0.45,VWS V14.01,2013-04-19 17:56:00,
2013-04-19 14:01:00,62.0,60.0,29.68,SSW,211,3.0,5.0,93,0.30,,---,0.46,VWS V14.01,2013-04-19 18:01:00,
2013-04-19 14:06:00,62.0,60.0,29.69,ENE,67,3.0,3.0,93,0.26,,---,0.46,VWS V14.01,2013-04-19 18:06:00,
2013-04-19 14:11:00,62.0,60.3,29.70,ESE,106,0.0,1.0,94,0.23,,---,0.46,VWS V14.01,2013-04-19 18:11:00,
2013-04-19 14:16:00,61.9,60.2,29.70,East,86,2.0,2.0,94,0.20,,---,0.46,VWS V14.01,2013-04-19 18:16:00,
2013-04-19 14:21:00,61.8,60.4,29.70,SE,124,1.0,2.0,95,0.18,,---,0.46,VWS V14.01,2013-04-19 18:21:00,
2013-04-19 14:26:00,61.7,60.0,29.70,East,89,2.0,3.0,94,0.17,,---,0.47,VWS V14.01,2013-04-19 18:26:00,
2013-04-19 14:31:00,61.6,60.2,29.69,SE,126,1.0,1.0,95,0.14,,---,0.47,VWS V14.01,2013-04-19 18:31:00,
2013-04-19 14:36:00,61.7,60.3,29.69,NNE,20,0.0,1.0,95,0.11,,---,0.48,VWS V14.01,2013-04-19 18:36:00,
2013-04-19 14:41:00,61.8,60.4,29.69,NNE,20,0.0,0.0,95,0.09,,---,0.48,VWS V14.01,2013-04-19 18:41:00,
2013-04-19 14:46:00,61.8,60.4,29.69,ESE,103,1.0,1.0,95,0.08,,---,0.48,VWS V14.01,2013-04-19 18:46:00,
2013-04-19 14:51:00,61.8,60.4,29.68,ENE,58,3.0,4.0,95,0.06,,---,0.49,VWS V14.01,2013-04-19 18:51:00,
2013-04-19 14:56:00,61.8,60.1,29.67,NW,305,1.0,2.0,94,0.04,,---,0.49,VWS V14.01,2013-04-19 18:56:00,
2013-04-19 15:01:00,61.8,60.1,29.68,SSW,195,0.0,1.0,94,0.03,,---,0.49,VWS V14.01,2013-04-19 19:01:00,
2013-04-19 15:06:00,61.7,60.0,29.68,NW,321,0.0,0.0,94,0.03,,---,0.49,VWS V14.01,2013-04-19 19:06:00,
2013-04-19 15:11:00,61.7,60.0,29.68,NNW,327,1.0,1.0,94,0.04,,---,0.50,VWS V14.01,2013-04-19 19:11:00,
2013-04-19 15:16:00,61.6,60.2,29.69,East,100,2.0,3.0,95,0.04,,---,0.50,VWS V14.01,2013-04-19 19:16:00,
2013-04-19 15:21:00,61.6,60.2,29.69,WNW,285,0.0,2.0,95,0.06,,---,0.52,VWS V14.01,2013-04-19 19:21:00,
2013-04-19 15:26:00,61.6,60.2,29.69,SW,232,0.0,2.0,95,0.07,,---,0.54,VWS V14.01,2013-04-19 19:26:00,
2013-04-19 15:31:00,61.0,59.3,29.70,ESE,103,1.0,3.0,94,0.09,,---,0.56,VWS V14.01,2013-04-19 19:31:00,
2013-04-19 15:36:00,60.3,58.6,29.66,West,274,2.0,2.0,94,0.09,,---,0.57,VWS V14.01,2013-04-19 19:36:00,
2013-04-19 15:41:00,59.7,58.0,29.69,NNE,25,1.0,2.0,94,0.09,,---,0.57,VWS V14.01,2013-04-19 19:41:00,
2013-04-19 15:46:00,59.6,58.5,29.67,East,82,0.0,1.0,96,0.09,,---,0.57,VWS V14.01,2013-04-19 19:46:00,
2013-04-19 15:51:00,59.7,58.6,29.68,ESE,107,1.0,1.0,96,0.09,,---,0.57,VWS V14.01,2013-04-19 19:51:00,
2013-04-19 15:56:00,59.8,58.7,29.68,SSE,149,0.0,1.0,96,0.08,,---,0.57,VWS V14.01,2013-04-19 19:56:00,
2013-04-19 16:01:00,59.2,57.5,29.69,WSW,252,0.0,1.0,94,0.08,,---,0.57,VWS V14.01,2013-04-19 20:01:00,
2013-04-19 16:06:00,58.7,57.3,29.68,ESE,123,0.0,2.0,95,0.08,,---,0.57,VWS V14.01,2013-04-19 20:06:00,
2013-04-19 16:11:00,58.2,56.5,29.67,West,276,1.0,2.0,94,0.07,,---,0.57,VWS V14.01,2013-04-19 20:11:00,
2013-04-19 16:16:00,57.2,55.5,29.66,SSE,163,0.0,0.0,94,0.07,,---,0.57,VWS V14.01,2013-04-19 20:16:00,
2013-04-19 16:21:00,56.9,55.5,29.66,NNE,16,2.0,2.0,95,0.05,,---,0.57,VWS V14.01,2013-04-19 20:21:00,
2013-04-19 16:26:00,57.0,55.9,29.67,North,359,1.0,1.0,96,0.03,,---,0.57,VWS V14.01,2013-04-19 20:26:00,
2013-04-19 16:31:00,56.7,55.3,29.66,North,11,1.0,5.0,95,0.01,,---,0.57,VWS V14.01,2013-04-19 20:31:00,
2013-04-19 16:36:00,55.9,53.9,29.68,SSW,194,1.0,4.0,93,0.00,,---,0.57,VWS V14.01,2013-04-19 20:36:00,
2013-04-19 16:41:00,55.0,52.7,29.70,NE,50,4.0,7.0,92,0.00,,---,0.57,VWS V14.01,2013-04-19 20:41:00,
2013-04-19 16:46:00,54.5,53.1,29.69,WSW,240,1.0,2.0,95,0.00,,---,0.57,VWS V14.01,2013-04-19 20:46:00,
2013-04-19 16:51:00,54.2,52.8,29.70,SSE,165,1.0,2.0,95,0.00,,---,0.57,VWS V14.01,2013-04-19 20:51:00,
2013-04-19 16:56:00,53.8,52.1,29.69,SE,131,0.0,0.0,94,0.00,,---,0.57,VWS V14.01,2013-04-19 20:56:00,
2013-04-19 17:01:00,53.3,51.6,29.70,SE,130,0.0,2.0,94,0.00,,---,0.57,VWS V14.01,2013-04-19 21:01:00,
2013-04-19 17:06:00,52.8,51.4,29.72,SSE,159,0.0,2.0,95,0.00,,---,0.57,VWS V14.01,2013-04-19 21:06:00,
2013-04-19 17:11:00,52.3,50.6,29.72,WSW,239,0.0,1.0,94,0.00,,---,0.57,VWS V14.01,2013-04-19 21:11:00,
2013-04-19 17:16:00,52.0,50.6,29.70,ENE,76,2.0,4.0,95,0.00,,---,0.57,VWS V14.01,2013-04-19 21:16:00,
2013-04-19 17:21:00,51.3,49.3,29.71,East,97,3.0,5.0,93,0.00,,---,0.57,VWS V14.01,2013-04-19 21:21:00,
2013-04-19 17:26:00,50.5,48.6,29.71,SE,134,0.0,1.0,93,0.00,,---,0.57,VWS V14.01,2013-04-19 21:26:00,
2013-04-19 17:31:00,50.1,48.2,29.73,SSW,200,2.0,2.0,93,0.00,,---,0.57,VWS V14.01,2013-04-19 21:31:00,
2013-04-19 17:36:00,49.7,47.8,29.73,South,176,3.0,6.0,93,0.00,,---,0.57,VWS V14.01,2013-04-19 21:36:00,
2013-04-19 17:41:00,49.2,47.0,29.74,East,79,3.0,6.0,92,0.00,,---,0.57,VWS V14.01,2013-04-19 21:41:00,
2013-04-19 17:46:00,48.9,47.0,29.74,ENE,69,3.0,3.0,93,0.00,,---,0.57,VWS V14.01,2013-04-19 21:46:00,
2013-04-19 17:51:00,48.5,46.3,29.75,NW,304,7.0,7.0,92,0.00,,---,0.57,VWS V14.01,2013-04-19 21:51:00,
2013-04-19 17:56:00,48.2,46.3,29.74,SW,218,1.0,2.0,93,0.00,,---,0.57,VWS V14.01,2013-04-19 21:56:00,
2013-04-19 18:01:00,48.1,46.2,29.74,East,97,0.0,3.0,93,0.00,,---,0.57,VWS V14.01,2013-04-19 22:01:00,
2013-04-19 18:06:00,48.0,46.1,29.74,WNW,295,3.0,5.0,93,0.00,,---,0.57,VWS V14.01,2013-04-19 22:06:00,
2013-04-19 18:11:00,47.8,45.9,29.74,ENE,64,0.0,2.0,93,0.00,,---,0.57,VWS V14.01,2013-04-19 22:11:00,
2013-04-19 18:16:00,47.8,45.9,29.73,SE,130,0.0,0.0,93,0.00,,---,0.57,VWS V14.01,2013-04-19 22:16:00,
2013-04-19 18:21:00,47.7,45.8,29.74,ENE,72,2.0,3.0,93,0.00,,---,0.57,VWS V14.01,2013-04-19 22:21:00,
2013-04-19 18:26:00,47.6,45.4,29.74,SE,146,2.0,2.0,92,0.00,,---,0.57,VWS V14.01,2013-04-19 22:26:00,
2013-04-19 18:31:00,47.6,45.4,29.75,SSE,167,1.0,2.0,92,0.00,,---,0.57,VWS V14.01,2013-04-19 22:31:00,
2013-04-19 18:36:00,47.7,45.5,29.74,East,84,2.0,3.0,92,0.00,,---,0.57,VWS V14.01,2013-04-19 22:36:00,
2013-04-19 18:41:00,47.8,45.6,29.75,NE,50,0.0,5.0,92,0.00,,---,0.57,VWS V14.01,2013-04-19 22:41:00,
2013-04-19 18:46:00,47.9,45.7,29.74,WSW,239,2.0,2.0,92,0.00,,---,0.57,VWS V14.01,2013-04-19 22:46:00,
2013-04-19 18:51:00,47.7,45.5,29.74,WSW,249,2.0,2.0,92,0.00,,---,0.57,VWS V14.01,2013-04-19 22:51:00,
2013-04-19 18:56:00,47.7,45.2,29.73,SSW,198,0.0,0.0,91,0.00,,---,0.57,VWS V14.01,2013-04-19 22:56:00,
2013-04-19 19:01:00,47.7,45.5,29.73,WSW,248,0.0,0.0,92,0.00,,---,0.57,VWS V14.01,2013-04-19 23:01:00,
2013-04-19 19:06:00,47.8,45.9,29.73,South,190,1.0,1.0,93,0.00,,---,0.57,VWS V14.01,2013-04-19 23:06:00,
2013-04-19 19:11:00,47.7,45.2,29.73,North,352,0.0,7.0,91,0.00,,---,0.57,VWS V14.01,2013-04-19 23:11:00,
2013-04-19 19:16:00,47.5,45.0,29.75,WSW,255,2.0,2.0,91,0.00,,---,0.57,VWS V14.01,2013-04-19 23:16:00,
2013-04-19 19:21:00,47.4,44.9,29.75,SE,139,0.0,4.0,91,0.00,,---,0.57,VWS V14.01,2013-04-19 23:21:00,
2013-04-19 19:26:00,47.2,44.7,29.75,South,183,2.0,2.0,91,0.00,,---,0.57,VWS V14.01,2013-04-19 23:26:00,
2013-04-19 19:31:00,47.1,44.6,29.76,ENE,69,2.0,8.0,91,0.00,,---,0.57,VWS V14.01,2013-04-19 23:31:00,
2013-04-19 19:36:00,47.0,44.5,29.75,SSW,195,3.0,4.0,91,0.00,,---,0.57,VWS V14.01,2013-04-19 23:36:00,
2013-04-19 19:41:00,46.8,44.3,29.74,ESE,117,0.0,0.0,91,0.00,,---,0.57,VWS V14.01,2013-04-19 23:41:00,
2013-04-19 19:46:00,46.8,44.6,29.75,SE,142,0.0,2.0,92,0.00,,---,0.57,VWS V14.01,2013-04-19 23:46:00,
2013-04-19 19:51:00,46.7,44.5,29.75,South,170,1.0,5.0,92,0.00,,---,0.57,VWS V14.01,2013-04-19 23:51:00,
2013-04-19 19:56:00,46.6,44.1,29.76,SSW,204,2.0,3.0,91,0.00,,---,0.57,VWS V14.01,2013-04-19 23:56:00,
2013-04-19 20:01:00,46.5,44.0,29.76,East,83,0.0,4.0,91,0.00,,---,0.57,VWS V14.01,2013-04-20 00:01:00,
2013-04-19 20:06:00,46.4,43.9,29.77,ESE,105,2.0,3.0,91,0.00,,---,0.57,VWS V14.01,2013-04-20 00:06:00,
2013-04-19 20:11:00,46.3,43.8,29.77,West,262,3.0,4.0,91,0.00,,---,0.57,VWS V14.01,2013-04-20 00:11:00,
2013-04-19 20:16:00,46.2,43.7,29.77,SSE,158,2.0,4.0,91,0.00,,---,0.57,VWS V14.01,2013-04-20 00:16:00,
2013-04-19 20:21:00,46.2,43.4,29.77,ENE,69,1.0,2.0,90,0.00,,---,0.57,VWS V14.01,2013-04-20 00:21:00,
2013-04-19 20:26:00,46.1,43.0,29.78,East,88,1.0,1.0,89,0.00,,---,0.57,VWS V14.01,2013-04-20 00:26:00,
2013-04-19 20:31:00,46.0,43.2,29.78,WSW,241,2.0,2.0,90,0.00,,---,0.57,VWS V14.01,2013-04-20 00:31:00,
2013-04-19 20:36:00,45.9,42.5,29.78,WNW,295,0.0,0.0,88,0.00,,---,0.57,VWS V14.01,2013-04-20 00:36:00,
2013-04-19 20:41:00,45.8,42.8,29.79,ESE,122,2.0,2.0,89,0.00,,---,0.57,VWS V14.01,2013-04-20 00:41:00,
2013-04-19 20:46:00,45.6,42.5,29.79,West,270,0.0,0.0,89,0.00,,---,0.57,VWS V14.01,2013-04-20 00:46:00,
2013-04-19 20:51:00,45.5,42.2,29.80,SSE,160,3.0,7.0,88,0.00,,---,0.57,VWS V14.01,2013-04-20 00:51:00,
2013-04-19 20:56:00,45.3,42.0,29.81,SE,146,0.0,3.0,88,0.00,,---,0.57,VWS V14.01,2013-04-20 00:56:00,
2013-04-19 21:01:00,45.2,41.9,29.81,SE,127,2.0,3.0,88,0.00,,---,0.57,VWS V14.01,2013-04-20 01:01:00,
2013-04-19 21:06:00,44.9,41.3,29.81,ESE,103,2.0,2.0,87,0.00,,---,0.57,VWS V14.01,2013-04-20 01:06:00,
2013-04-19 21:11:00,44.8,40.9,29.82,SSE,163,0.0,0.0,86,0.00,,---,0.57,VWS V14.01,2013-04-20 01:11:00,
2013-04-19 21:16:00,44.6,40.7,29.83,ESE,120,2.0,3.0,86,0.00,,---,0.57,VWS V14.01,2013-04-20 01:16:00,
2013-04-19 21:21:00,44.4,40.8,29.83,SW,235,5.0,8.0,87,0.00,,---,0.57,VWS V14.01,2013-04-20 01:21:00,
2013-04-19 21:26:00,44.3,40.7,29.83,SW,225,3.0,3.0,87,0.00,,---,0.57,VWS V14.01,2013-04-20 01:26:00,
2013-04-19 21:31:00,44.1,40.2,29.84,East,99,3.0,3.0,86,0.00,,---,0.57,VWS V14.01,2013-04-20 01:31:00,
2013-04-19 21:36:00,43.9,38.8,29.84,NNE,15,0.0,6.0,82,0.00,,---,0.57,VWS V14.01,2013-04-20 01:36:00,
2013-04-19 21:41:00,43.8,39.0,29.84,SE,136,1.0,1.0,83,0.00,,---,0.57,VWS V14.01,2013-04-20 01:41:00,
2013-04-19 21:46:00,43.7,38.9,29.85,SSE,149,0.0,4.0,83,0.00,,---,0.57,VWS V14.01,2013-04-20 01:46:00,
2013-04-19 21:51:00,43.5,38.4,29.85,SSW,203,0.0,9.0,82,0.00,,---,0.57,VWS V14.01,2013-04-20 01:51:00,
2013-04-19 21:56:00,43.3,38.5,29.86,ESE,107,1.0,2.0,83,0.00,,---,0.57,VWS V14.01,2013-04-20 01:56:00,
2013-04-19 22:01:00,43.1,38.3,29.86,West,269,2.0,2.0,83,0.00,,---,0.57,VWS V14.01,2013-04-20 02:01:00,
2013-04-19 22:06:00,42.8,37.4,29.87,ESE,114,0.0,0.0,81,0.00,,---,0.57,VWS V14.01,2013-04-20 02:06:00,
2013-04-19 22:11:00,42.6,36.9,29.88,NE,55,1.0,2.0,80,0.00,,---,0.57,VWS V14.01,2013-04-20 02:11:00,
2013-04-19 22:16:00,42.3,36.9,29.88,ESE,118,1.0,1.0,81,0.00,,---,0.57,VWS V14.01,2013-04-20 02:16:00,
2013-04-19 22:21:00,42.0,36.9,29.88,SE,132,1.0,1.0,82,0.00,,---,0.57,VWS V14.01,2013-04-20 02:21:00,
2013-04-19 22:26:00,41.8,37.6,29.89,East,90,2.0,2.0,85,0.00,,---,0.57,VWS V14.01,2013-04-20 02:26:00,
2013-04-19 22:31:00,41.7,36.6,29.89,WSW,248,1.0,1.0,82,0.00,,---,0.57,VWS V14.01,2013-04-20 02:31:00,
2013-04-19 22:36:00,41.5,36.4,29.89,WNW,283,0.0,0.0,82,0.00,,---,0.57,VWS V14.01,2013-04-20 02:36:00,
2013-04-19 22:41:00,41.4,36.6,29.89,SE,127,1.0,1.0,83,0.00,,---,0.57,VWS V14.01,2013-04-20 02:41:00,
2013-04-19 22:47:00,41.1,35.7,29.90,SSW,197,0.0,0.0,81,0.00,,---,0.57,VWS V14.01,2013-04-20 02:47:00,
2013-04-19 22:51:00,41.1,36.3,29.91,SSW,192,1.0,2.0,83,0.00,,---,0.57,VWS V14.01,2013-04-20 02:51:00,
2013-04-19 22:57:00,41.0,36.5,29.90,SSE,156,1.0,1.0,84,0.00,,---,0.57,VWS V14.01,2013-04-20 02:57:00,
2013-04-19 23:02:00,40.9,36.5,29.90,SSE,158,0.0,0.0,84,0.00,,---,0.57,VWS V14.01,2013-04-20 03:02:00,
2013-04-19 23:07:00,40.9,35.8,29.91,West,262,0.0,1.0,82,0.00,,---,0.57,VWS V14.01,2013-04-20 03:07:00,
2013-04-19 23:12:00,40.9,36.5,29.91,SSE,160,0.0,0.0,84,0.00,,---,0.57,VWS V14.01,2013-04-20 03:12:00,
2013-04-19 23:17:00,40.8,36.3,29.91,ESE,108,1.0,1.0,84,0.00,,---,0.57,VWS V14.01,2013-04-20 03:17:00,
2013-04-19 23:22:00,40.7,35.3,29.91,SSE,162,0.0,0.0,81,0.00,,---,0.57,VWS V14.01,2013-04-20 03:22:00,
2013-04-19 23:27:00,40.8,35.4,29.91,West,274,0.0,0.0,81,0.00,,---,0.57,VWS V14.01,2013-04-20 03:27:00,
2013-04-19 23:32:00,40.8,35.7,29.91,South,175,0.0,0.0,82,0.00,,---,0.57,VWS V14.01,2013-04-20 03:32:00,
2013-04-19 23:37:00,40.8,35.4,29.92,SW,228,0.0,1.0,81,0.00,,---,0.57,VWS V14.01,2013-04-20 03:37:00,
2013-04-19 23:42:00,40.8,35.7,29.91,SSE,153,1.0,1.0,82,0.00,,---,0.57,VWS V14.01,2013-04-20 03:42:00,
2013-04-19 23:47:00,40.8,35.4,29.92,North,354,1.0,2.0,81,0.00,,---,0.57,VWS V14.01,2013-04-20 03:47:00,
2013-04-19 23:52:00,40.8,36.0,29.92,West,273,2.0,2.0,83,0.00,,---,0.57,VWS V14.01,2013-04-20 03:52:00,
2013-04-19 23:57:00,40.8,35.1,29.92,WNW,297,2.0,2.0,80,0.00,,---,0.57,VWS V14.01,2013-04-20 03:57:00,